Погода в Авилове

Россия / Волгоградская область     49°22′35″N   44°00′55″E
темп.,
°C
ветер,
м/с
пор.,
м/с
влажн.,
%
обл.,
%
осадки,
мм/ч
давл.,
гПа
погр.,
м
21 июня, пн
пн2100:00+21в61450100 0.0 1019247
03:00+19в5115716 0.0 1019167
06:00+20в496213 0.0 1020178
09:00+28в58402 0.0 1020519
12:00+32вюв78270 0.0 10191738
15:00+33вюв68235 0.0 10182541
18:00+31всв47360 0.0 1017185
21:00+24всв614542 0.0 1018249
22 июня, вт
вт2200:00+22всв514580 0.0 1018242
03:00+22всв513605 0.0 1019231
06:00+23всв6136493 0.0 1018264
09:00+30всв694021 0.0 1018485
12:00+34в78304 0.0 10181708
15:00+35вюв682441 0.0 10173056
18:00+33в6103529 0.0 1016311
21:00+28в71641100 0.0 1017358
23 июня, ср
ср2300:00+27в71735100 0.0 1017382
03:00+25в6143799 0.0 1017259
06:00+24в5104876 0.0 1017203
09:00+30в5635100 0.0 1018441
12:00+33в5630100 0.0 10181065
15:00+33всв5734100 0.0 1017694
18:00+31св594488 0.0 1016285
21:00+26св495046 0.0 1017143
24 июня, чт
чт2400:00+24всв465337 0.0 101779
03:00+23всв33563 0.0 101728
06:00+24всв34585 0.0 101897
09:00+31в44365 0.0 1018480
12:00+34в442886 0.0 10171602
15:00+35в3424100 0.0 10162834
18:00+33св353690 0.0 1016109
21:00+27св51153100 0.0 1016200
25 июня, пт
пт2500:00+26всв7155253 0.0 1016361
03:00+24всв51257100 0.0 1015222
06:00+24св6116622 0.0 1016292
09:00+30в5746100 0.0 1016672
12:00+32в6739100 0.0 10151181
15:00+34всв453484 0.0 10141813
18:00+32св584383 0.0 1014448
21:00+26св410595 0.0 1013175